Content
SEND FEEDBACK

Daily
Averages
Monthly
Summary
Seychelles

ANSE BOILEAU, SEYCHELLES


Home > Indian Ocean > Seychelles
Elevation: 10 feet     Latitude: 04 40S     Longitude: 055 31E

WEATHER
 
SELECT A DAY
Number of Records: 134,413;   Date Range: 7/26/96 - 9/30/14
 
SHARE

PRINT THIS DATA

[ ← Previous Day ]
WEATHER ALMANAC - JANUARY 31, 2013
[ Next Day → ]
[ °C ]   °F
Weather ElementAverageHighLow
Temperature84.4 °F87.8 °F (1:00 pm)82 °F (4:00 am)
Dewpoint76.2 °F78.8 °F (1:00 pm)73.4 °F (4:00 am)
Humidity75.2 %84 % (1:00 am)65 % (4:00 pm)
Barometer29.82 in29.88 in (10:00 am)29.77 in (2:00 pm)
Wind Speed7.1 mph10.4 mph (1:00 pm)
Weather ElementAverage
Visibility7.7 mi
Wind DirectionENE (54.4 °)

Weather ElementTotal
Precipitation---
Cooling Degree Days19.9 (Base 65)
Growing Degree Days34.9 (Base 50)
Averaged from 25 records on January 31, 2013
WEATHER CONDITIONS BREAKOUT
WIND DIRECTION BREAKOUT
WEATHER BY HOUR - JANUARY 31, 2013
[ °C ]   °F
Local TimeTemperatureDewpointHumidityBarometerVisibilityWind DirectionWind SpeedGust SpeedPrecipitationEventsConditions
1:00 AM82.4 °F77.0 °F84 %29.83 in6.2 miNE (50°)6.9 mphMostly Cloudy
2:00 AM82.4 °F77.0 °F84 %29.80 in6.2 miENE (60°)6.9 mphMostly Cloudy
3:00 AM82.4 °F77.0 °F84 %29.80 in6.2 miNE (50°)5.8 mphMostly Cloudy
4:00 AM82.0 °F74.0 °F69 %29.81 in12.0 miNE (50°)2.3 mphMostly Cloudy
4:00 AM82.4 °F73.4 °F74 %29.80 in6.2 miENE (60°)3.5 mphPartly Cloudy
6:00 AM82.4 °F75.2 °F79 %29.80 in6.2 miENE (60°)5.8 mphMostly Cloudy
7:00 AM82.4 °F75.2 °F79 %29.83 in6.2 miNE (50°)5.8 mphMostly Cloudy
8:00 AM84.2 °F77.0 °F79 %29.86 in6.2 miENE (60°)8.1 mphMostly Cloudy
9:00 AM86.0 °F77.0 °F74 %29.86 in6.2 miNE (40°)5.8 mphMostly Cloudy
10:00 AM86.0 °F77.0 °F67 %29.88 in12.0 miENE (60°)8.1 mph
10:00 AM86.0 °F77.0 °F74 %29.86 in6.2 miENE (60°)8.1 mphMostly Cloudy
11:00 AM86.0 °F77.0 °F74 %29.86 in6.2 miNE (50°)5.8 mphMostly Cloudy
12:00 PM86.0 °F77.0 °F74 %29.83 in6.2 miENE (70°)8.1 mphMostly Cloudy
1:00 PM87.8 °F78.8 °F75 %29.80 in6.2 miENE (60°)10.4 mphMostly Cloudy
2:00 PM87.8 °F77.0 °F70 %29.77 in6.2 miENE (60°)8.1 mphMostly Cloudy
3:00 PM86.0 °F75.2 °F70 %29.77 in6.2 miNE (40°)8.1 mphMostly Cloudy
4:00 PM86.0 °F76.0 °F65 %29.77 in19.0 miNE (40°)9.2 mphPartly Cloudy
4:00 PM86.0 °F75.2 °F70 %29.77 in6.2 miNE (40°)9.2 mphMostly Cloudy
6:00 PM84.2 °F77.0 °F79 %29.77 in6.2 miNE (40°)10.4 mphMostly Cloudy
7:00 PM84.2 °F77.0 °F79 %29.80 in6.2 miNE (50°)6.9 mphMostly Cloudy
8:00 PM84.2 °F75.2 °F74 %29.83 in6.2 miNNE (30°)8.1 mphMostly Cloudy
9:00 PM84.2 °F75.2 °F74 %29.86 in6.2 miENE (60°)6.9 mphMostly Cloudy
10:00 PM83.0 °F76.0 °F75 %29.87 in19.0 miNE (40°)8.1 mph
10:00 PM84.2 °F77.0 °F79 %29.86 in6.2 miNE (40°)8.1 mphRainLight Rain Showers
11:00 PM82.4 °F73.4 °F74 %29.86 in6.2 miSE (140°)3.5 mphRainLight Rain Showers
Hourly data recorded from FSIA, located miles away from Anse Boileau, Seychelles







STORIES FROM OUR PARTNERS